Location: Taukkyan
(23.1052°N, 94.0030°E)
Time: 11:33:34
(UTC+00:00)

Cosmos 1066 Rocket - Pass Details

Date: 06 July 2020
Orbit: 799 x 894 km, 81.2° (Epoch: 14 August)

Event Time Altitude Azimuth Distance (km) Brightness Sun altitude
Rises 21:38:22 0° 352° (N) 3,499 7.8 -17.9°
Reaches altitude 10° 21:40:49 10° 352° (N) 2,561 7.0 -17.5°
Maximum altitude 21:46:41 86° 265° (W) 898 4.2 -16.3°
Drops below altitude 10° 21:52:30 10° 176° (S) 2,540 6.4 -15.2°
Sets 21:54:55 0° 176° (S) 3,469 7.1 -14.8°
